Location: Caltech
(34.1382°N, 118.1253°W)
Time: 07:29:14
(UTC-07:00)

Iridium 14 - Visible Passes

Search period start: 02 October 2014 00:00
Search period end: 12 October 2014 00:00
Orbit: 776 x 779 km, 86.4° (Epoch: 01 October)

Date Brightness Start Highest point End Pass type
(mag) Time Alt. Az. Time Alt. Az. Time Alt. Az.
02 Oct 6.2 06:19:09 10° N 06:24:23 86° E 06:29:35 10° S visible
02 Oct 7.6 19:12:13 10° SSW 19:17:04 40° W 19:21:58 10° NNW visible
03 Oct 7.4 05:45:51 10° NNE 05:50:49 43° E 05:55:44 10° SSE visible
04 Oct 8.6 05:13:03 10° NNE 05:17:07 23° E 05:21:10 10° SE visible
04 Oct 9.3 19:48:22 10° WSW 19:51:02 14° WNW 19:53:43 10° NW visible
05 Oct 9.4 04:41:35 10° ENE 04:43:18 12° ENE 04:45:01 10° E visible
05 Oct 6.0 06:19:17 10° N 06:24:26 64° W 06:29:33 10° S visible
05 Oct 8.5 19:12:54 10° SW 19:17:15 27° W 19:21:38 10° NNW visible
06 Oct 6.5 05:45:45 10° N 05:50:56 66° E 05:56:05 10° S visible
07 Oct 7.8 05:12:37 10° NNE 05:17:19 33° E 05:21:59 10° SSE visible
08 Oct 8.8 04:40:08 10° NE 04:43:34 18° E 04:47:00 10° ESE visible
08 Oct 6.4 06:19:33 10° NNW 06:24:26 42° W 06:29:18 10° SSW visible
08 Oct 9.0 19:13:56 10° WSW 19:17:28 18° W 19:21:01 10° NW visible
09 Oct 6.0 05:45:47 10° N 05:51:00 83° W 05:56:12 10° S visible
10 Oct 6.9 05:12:24 10° N 05:17:28 50° E 05:22:29 10° SSE visible
11 Oct 8.1 04:39:28 10° NNE 04:43:48 26° E 04:48:05 10° SE visible
11 Oct 6.8 06:20:00 10° NNW 06:24:24 28° W 06:28:47 10° SW visible
11 Oct 9.3 19:15:45 10° W 19:17:44 12° WNW 19:19:43 10° NW visible
